Вернуться в каталог

QIANFAN-93

АктивенСвязьPO
NORAD 66035·PAYLOAD·🇨🇳 China

Запущен Oct 17, 2025 с Taiyuan Satellite Launch Center

Loading…

Ближайшие Пролёты (ближайшие 24 часа)

TLE

СвежийSource: Space-Track

Эпоха: Sep 14, 2026, 14:48 UTC

1 66035U 25233C   26257.61710102  .00000057  00000-0  69860-4 0  9990
2 66035  89.0013  34.1765 0002245 101.1327 259.0077 13.51022859 45259

Отслеживайте QIANFAN-93 в реальном времени с AllMySat

Download on the App Store